Weather observations for the past three days for
Jackson, McKellar-Sipes Regional Airport
Imperial (Metric)
Date Time (cdt) Wind (mph) Vis. (mi.) Weather Sky Cond. Temperature (ºF) Relative Humidity Wind Chill (°F) Heat Index (°F) Pressure Precipitation (in)
Air Dwpt 6 hour altimeter (in) sea level (mb) 1 hr 3 hr 6 hr
Max. Min.
24 06:53 S 3 10.00 Mostly Cloudy BKN008 BKN012 73.9 72 75 73 94% 30.16 1020.7
24 05:53 S 5 10.00 Partly Cloudy SCT008 73.9 72 94% 30.15 1020.4
24 04:53 Calm 10.00 Fair CLR 73 71.1 94% 30.13 1019.8
24 03:53 Calm 10.00 Fair CLR 73 71.1 94% 30.13 1019.7
24 02:53 S 3 10.00 A Few Clouds FEW027 73 71.1 94% 30.13 1019.7
24 01:53 Calm 8.00 Fair CLR 73 71.1 94% 30.12 1019.4
24 00:53 Calm 8.00 Fair CLR 73 71.1 78.1 73 94% 30.12 1019.6
23 23:53 Calm 10.00 Fair CLR 73.9 71.1 91% 30.12 1019.5
23 22:53 Calm 10.00 Fair CLR 73.9 72 94% 30.13 1019.7
23 21:53 Calm 10.00 Fair CLR 75 72 90% 74 30.12 1019.4
23 20:53 Calm 10.00 Fair CLR 75.9 72 88% 76 30.1 1018.8
23 19:53 S 3 10.00 Fair CLR 75.9 73 91% 76 30.1 1018.8
23 18:53 Calm 10.00 Fair CLR 78.1 72 81 77 82% 80 30.09 1018.4 0.03
23 17:53 S 3 10.00 Partly Cloudy SCT013 79 71.1 77% 82 30.08 1017.9
23 16:53 SW 3 10.00 Mostly Cloudy BKN010 BKN015 78.1 73 85% 81 30.07 1017.8
23 15:53 SW 5 10.00 Light Rain SCT046 BKN065 OVC110 78.1 72 82% 80 30.07 1017.8 0.01 0.03
23 14:53 S 7 10.00 Light Rain SCT022 BKN080 OVC110 77 73 88% 78 30.07 1018.0 0.02
23 13:53 SW 5 10.00 A Few Clouds FEW034 FEW120 81 71.1 72% 85 30.08 1018.2
23 12:53 Calm 10.00 Overcast FEW015 BKN075 OVC085 79 71.1 79 73.9 77% 82 30.1 1018.6 0.08
23 11:53 E 3 10.00 Mostly Cloudy FEW047 BKN120 77 70 79% 79 30.1 1019.0
23 10:53 E 6 10.00 Overcast SCT010 OVC015 77 71.1 82% 79 30.11 1019.1
23 09:53 Calm 10.00 Overcast FEW007 BKN011 OVC075 75.9 71.1 85% 76 30.1 1018.8 0.08
23 08:53 SW 5 10.00 Overcast OVC007 75 71.1 88% 75 30.09 1018.4 0.02
23 07:53 S 7 5.00 Light Rain Fog/Mist BKN006 OVC015 73.9 72 94% 30.08 1018.0 0.06
23 06:53 S 7 8.00 Mostly Cloudy SCT029 BKN049 BKN065 73.9 72 75.9 73.9 94% 30.06 1017.5 0.03
23 05:53 S 5 10.00 Mostly Cloudy FEW032 SCT044 BKN090 73.9 72 94% 30.04 1016.8 0.01
23 04:53 Calm 10.00 Light Rain FEW048 BKN110 73.9 72 94% 30.02 1016.1 0.02
23 03:53 S 3 10.00 Light Rain BKN065 OVC095 75 72 90% 74 30.02 1016.0
23 02:53 Calm 10.00 Overcast BKN100 OVC110 75 72 90% 74 30.02 1015.9
23 01:53 Calm 10.00 Mostly Cloudy BKN110 75 72 90% 74 30.02 1015.9
23 00:53 Calm 10.00 Fair CLR 75 72 82 73.9 90% 74 30.02 1016.0
22 23:53 Calm 8.00 Fair CLR 75 72 90% 74 30.02 1016.0
22 22:53 Calm 10.00 Fair CLR 75 72 90% 74 30.03 1016.4
22 21:53 S 3 10.00 Fair CLR 75.9 73 91% 76 30.02 1016.0
22 20:53 E 5 10.00 Mostly Cloudy BKN041 BKN100 77 73.9 90% 78 30 1015.5
22 19:53 Calm 10.00 A Few Clouds FEW100 80.1 72 76% 84 29.99 1014.9
22 18:53 SE 3 10.00 Partly Cloudy SCT047 82 73 90 82 74% 87 29.98 1014.5
22 17:53 NW 3 10.00 Partly Cloudy SCT060 86 70 59% 91 29.96 1014.0
22 16:53 Calm 10.00 Fair CLR 89.1 71.1 55% 95 29.96 1013.9
22 15:53 NW 7 7.00 Fair CLR 88 70 55% 93 29.97 1014.2
22 14:53 Vrbl 3 10.00 Fair CLR 88 71.1 57% 94 29.98 1014.7
22 13:53 Vrbl 6 10.00 A Few Clouds FEW034 FEW065 88 70 55% 93 30 1015.4
22 12:53 Calm 10.00 Partly Cloudy SCT028 86 72 87.1 73 63% 92 30.01 1015.7
22 11:53 Calm 10.00 Overcast OVC024 82.9 72 70% 88 30.04 1016.5
22 10:53 E 3 10.00 Mostly Cloudy SCT018 BKN120 82 73 74% 87 30.03 1016.4
22 09:53 Vrbl 6 10.00 Partly Cloudy SCT012 80.1 72 76% 84 30.03 1016.3
22 08:53 Calm 10.00 Partly Cloudy SCT006 77 72 85% 78 30.02 1016.2
22 07:53 NE 5 10.00 Fair CLR 75 72 90% 74 30.02 1016.0
22 06:53 NW 5 10.00 Mostly Cloudy FEW004 BKN060 73 71.1 73.9 71.1 94% 30 1015.3
22 05:53 Calm 10.00 Mostly Cloudy BKN065 72 70 94% 29.98 1014.7
22 04:53 Calm 10.00 Partly Cloudy SCT120 72 70 94% 29.98 1014.7
22 03:53 Calm 10.00 A Few Clouds FEW120 73 70 90% 29.99 1014.9
22 02:53 Calm 10.00 Fair CLR 73 70 90% 29.99 1014.9
22 01:53 NE 3 10.00 A Few Clouds FEW120 73 70 90% 30 1015.3
21 23:53 Calm 10.00 Fair CLR 73.9 71.1 91% 30.02 1015.9
21 22:53 NE 3 10.00 Fair CLR 73 70 90% 30.01 1015.7
21 21:53 Calm 10.00 Fair CLR 73.9 70 88% 30 1015.2
21 20:53 Calm 10.00 Fair CLR 75 71.1 88% 75 29.99 1015.1
21 19:53 E 6 10.00 Fair CLR 77 70 79% 79 30 1015.4
21 18:53 NE 13 10.00 Thunderstorm in Vicinity CLR 84.9 72 90 84.9 65% 91 29.97 1014.4
21 17:53 NW 9 10.00 Fair CLR 87.1 71.1 59% 93 29.97 1014.1
21 16:53 NW 5 10.00 Fair CLR 89.1 69.1 52% 94 29.96 1014.0
21 15:53 NW 8 10.00 A Few Clouds FEW042 89.1 70 53% 94 29.97 1014.2
21 14:53 W 8 10.00 Mostly Cloudy FEW042 BKN065 BKN080 88 69.1 54% 92 29.98 1014.6
21 13:53 NW 6 10.00 Partly Cloudy SCT075 88 70 55% 93 30.01 1015.6
21 12:53 Vrbl 6 10.00 A Few Clouds FEW041 87.1 71.1 88 73.9 59% 93 30.02 1016.1
21 11:53 NW 10 10.00 Partly Cloudy FEW031 SCT042 SCT065 86 71.1 61% 92 30.04 1016.6
21 10:53 N 6 10.00 Partly Cloudy FEW019 FEW037 SCT044 82.9 73 72% 89 30.04 1016.8
21 09:53 NW 3 10.00 A Few Clouds FEW014 82 73 74% 87 30.04 1016.7
21 08:53 SE 5 10.00 Partly Cloudy SCT080 80.1 73 79% 84 30.04 1016.6
21 07:53 Calm 10.00 Mostly Cloudy BKN002 75.9 72 88% 76 30.04 1016.8
Date Time (cdt) Wind (mph) Vis. (mi.) Weather Sky Cond. Air Dwpt Max. Min. Relative Humidity Wind Chill (°F) Heat Index (°F) altimeter (in) sea level (mb) 1 hr 3 hr 6 hr
6 hour
Temperature (ºF) Pressure Precipitation (in)